IBE1315 LEMD-EDDM

Flight info

Callsign IBE1315
Flight time N/A
Altitude 38000
Route PINAR N870 SEGRE DCT YAKXU DCT RONNY DCT TOPTU DCT TOU DCT GAI DCT MEN DCT NINUN DCT LATAM DCT ETREK DCT LTP DCT SOPLO DCT OMASI DCT KINNI DCT LAMUR DCT KORED DCT BERSU DCT DITON DCT NUNRI T103 BETOS BETOS1A
Aircraft A320/M-SDE3FGHIRWY/LB1

Departure

Time 2026-05-01 13:54
Airport Adolfo Suárez Madrid–Barajas Airport (LEMD)

Arrival

Time N/A
Airport Munich Airport (EDDM)
Time Latitude Longitude Altitude Speed Heading
2026-05-01 13:48 40.48767 -3.56804 1976 ft 22 kts 90°
2026-05-01 13:48 40.48767 -3.56590 1971 ft 25 kts 90°
2026-05-01 13:48 40.48768 -3.56349 1965 ft 28 kts 90°
2026-05-01 13:49 40.48779 -3.56152 1959 ft 13 kts 50°
2026-05-01 13:49 40.48878 -3.56136 1959 ft 15 kts
2026-05-01 13:49 40.48982 -3.56139 1959 ft 15 kts 359°
2026-05-01 13:49 40.49086 -3.56140 1959 ft 15 kts 359°
2026-05-01 13:50 40.49186 -3.56140 1959 ft 14 kts
2026-05-01 13:50 40.49276 -3.56140 1959 ft 12 kts
2026-05-01 13:50 40.49350 -3.56141 1959 ft 11 kts 359°
2026-05-01 13:50 40.49408 -3.56099 1959 ft 10 kts 68°
2026-05-01 13:51 40.49410 -3.56024 1959 ft 7 kts 90°
2026-05-01 13:51 40.49410 -3.55974 1960 ft 4 kts 89°
2026-05-01 13:51 40.49410 -3.55927 1961 ft 11 kts 89°
2026-05-01 13:51 40.49411 -3.55832 1963 ft 9 kts 89°
2026-05-01 13:52 40.49409 -3.55767 1963 ft 6 kts 100°
2026-05-01 13:52 40.49395 -3.55717 1962 ft 6 kts 113°
2026-05-01 13:52 40.49364 -3.55666 1962 ft 7 kts 142°
2026-05-01 13:52 40.49308 -3.55607 1961 ft 27 kts 141°
2026-05-01 13:53 40.48921 -3.55216 1952 ft 110 kts 142°
2026-05-01 13:53 40.47777 -3.54045 2028 ft 183 kts 142°
2026-05-01 13:54 40.47763 -3.54031 2035 ft 183 kts 142°
2026-05-01 13:54 40.47752 -3.54019 2041 ft 183 kts 142°
2026-05-01 13:54 40.47703 -3.53968 2068 ft 183 kts 142°
2026-05-01 13:54 40.46636 -3.52932 2676 ft 199 kts 146°
2026-05-01 13:55 40.45520 -3.51855 3471 ft 207 kts 143°
2026-05-01 13:55 40.44339 -3.50652 3850 ft 222 kts 142°
2026-05-01 13:55 40.43179 -3.49278 4371 ft 228 kts 127°
2026-05-01 13:55 40.42392 -3.47413 4819 ft 240 kts 116°
2026-05-01 13:56 40.41665 -3.45420 5467 ft 243 kts 116°
2026-05-01 13:56 40.40929 -3.43384 5915 ft 249 kts 116°
2026-05-01 13:56 40.40187 -3.41339 5995 ft 248 kts 116°
2026-05-01 13:56 40.39443 -3.39295 6007 ft 248 kts 115°
2026-05-01 13:57 40.39021 -3.37123 6016 ft 249 kts 89°
2026-05-01 13:57 40.39391 -3.34928 6567 ft 252 kts 64°
2026-05-01 13:57 40.40458 -3.33059 7045 ft 267 kts 37°
2026-05-01 13:57 40.42163 -3.32037 7577 ft 275 kts
2026-05-01 13:58 40.44077 -3.31690 8237 ft 280 kts
2026-05-01 13:58 40.46029 -3.31369 8922 ft 283 kts
2026-05-01 13:58 40.48000 -3.31049 9587 ft 287 kts
2026-05-01 13:58 40.49985 -3.30724 10228 ft 290 kts
2026-05-01 13:59 40.51998 -3.30388 10851 ft 293 kts
2026-05-01 13:59 40.54036 -3.30044 11454 ft 296 kts
2026-05-01 13:59 40.56071 -3.29698 12026 ft 299 kts
2026-05-01 13:59 40.58146 -3.29346 12586 ft 302 kts
2026-05-01 14:00 40.60245 -3.28986 13128 ft 305 kts
2026-05-01 14:00 40.62361 -3.28622 13646 ft 309 kts
2026-05-01 14:00 40.64553 -3.28245 13791 ft 326 kts
2026-05-01 14:00 40.66852 -3.27849 13922 ft 341 kts
2026-05-01 14:01 40.69256 -3.27436 14050 ft 356 kts
2026-05-01 14:01 40.71758 -3.27005 14178 ft 369 kts
2026-05-01 14:01 40.74347 -3.26543 14304 ft 382 kts
2026-05-01 14:01 40.76894 -3.25436 14526 ft 390 kts 28°
2026-05-01 14:02 40.79068 -3.23286 14869 ft 394 kts 47°
2026-05-01 14:02 40.80598 -3.20286 15227 ft 396 kts 66°
2026-05-01 14:02 40.81620 -3.16895 15586 ft 399 kts 69°
2026-05-01 14:02 40.82604 -3.13506 15936 ft 401 kts 69°
2026-05-01 14:03 40.83598 -3.10051 16276 ft 403 kts 69°
2026-05-01 14:03 40.84599 -3.06573 16604 ft 406 kts 69°
2026-05-01 14:03 40.85610 -3.03071 16918 ft 408 kts 69°
2026-05-01 14:03 40.86631 -2.99551 17221 ft 410 kts 69°
2026-05-01 14:04 40.87645 -2.96061 17516 ft 412 kts 69°
2026-05-01 14:04 40.88679 -2.92499 17800 ft 414 kts 69°
2026-05-01 14:04 40.89716 -2.88923 18074 ft 416 kts 69°
2026-05-01 14:04 40.90740 -2.85377 18339 ft 418 kts 69°
2026-05-01 14:05 40.91780 -2.81761 18597 ft 420 kts 69°
2026-05-01 14:05 40.92823 -2.78135 18847 ft 422 kts 69°
2026-05-01 14:05 40.93866 -2.74498 19093 ft 424 kts 69°
2026-05-01 14:05 40.94912 -2.70843 19327 ft 426 kts 69°
2026-05-01 14:06 40.95967 -2.67160 19554 ft 427 kts 69°
2026-05-01 14:06 40.97008 -2.63514 19769 ft 429 kts 69°
2026-05-01 14:06 40.98052 -2.59789 19978 ft 431 kts 71°
2026-05-01 14:06 40.98964 -2.55988 20179 ft 432 kts 74°
2026-05-01 14:07 40.99739 -2.52135 20368 ft 434 kts 76°
2026-05-01 14:07 41.00426 -2.48287 20545 ft 435 kts 77°
2026-05-01 14:07 41.01102 -2.44376 20713 ft 436 kts 76°
2026-05-01 14:08 41.03646 -2.37098 21064 ft 438 kts 53°
2026-05-01 14:08 41.05670 -2.34080 21265 ft 438 kts 42°
2026-05-01 14:08 41.08027 -2.31541 21467 ft 437 kts 38°
2026-05-01 14:08 41.10425 -2.29050 21666 ft 437 kts 38°
2026-05-01 14:09 41.12814 -2.26538 21865 ft 437 kts 38°
2026-05-01 14:09 41.15148 -2.24055 22062 ft 437 kts 39°
2026-05-01 14:09 41.17513 -2.21523 22261 ft 436 kts 39°
2026-05-01 14:09 41.19880 -2.18982 22462 ft 436 kts 39°
2026-05-01 14:10 41.22242 -2.16444 22662 ft 435 kts 39°
2026-05-01 14:10 41.24605 -2.13913 22862 ft 435 kts 39°
2026-05-01 14:10 41.26934 -2.11427 23060 ft 434 kts 39°
2026-05-01 14:10 41.29292 -2.08909 23260 ft 433 kts 39°
2026-05-01 14:11 41.31639 -2.06396 23459 ft 433 kts 39°
2026-05-01 14:11 41.36327 -2.01376 23859 ft 431 kts 39°
2026-05-01 14:11 41.38664 -1.98871 24059 ft 430 kts 39°
2026-05-01 14:12 41.40966 -1.96397 24256 ft 430 kts 39°
2026-05-01 14:12 41.43297 -1.93889 24457 ft 429 kts 39°
2026-05-01 14:12 41.45624 -1.91386 24658 ft 428 kts 39°
2026-05-01 14:12 41.47945 -1.88886 24858 ft 427 kts 39°
2026-05-01 14:13 41.50233 -1.86419 25056 ft 426 kts 39°
2026-05-01 14:13 41.51793 -1.84734 25191 ft 426 kts 39°
2026-05-01 14:13 41.54843 -1.81435 25457 ft 424 kts 39°
2026-05-01 14:13 41.57086 -1.79008 25652 ft 423 kts 39°
2026-05-01 14:14 41.59428 -1.76475 25858 ft 422 kts 39°
2026-05-01 14:14 41.61680 -1.74038 25983 ft 423 kts 39°
2026-05-01 14:14 41.63976 -1.71555 26011 ft 426 kts 39°
2026-05-01 14:14 41.66291 -1.69045 26009 ft 430 kts 39°
2026-05-01 14:15 41.68630 -1.66502 26010 ft 433 kts 39°
2026-05-01 14:15 41.70976 -1.63950 26009 ft 436 kts 39°
2026-05-01 14:15 41.73345 -1.61370 26009 ft 439 kts 39°
2026-05-01 14:15 41.75719 -1.58782 26009 ft 441 kts 39°
2026-05-01 14:16 41.78083 -1.56206 26009 ft 443 kts 39°
2026-05-01 14:16 41.80484 -1.53585 26009 ft 445 kts 39°
2026-05-01 14:16 41.82817 -1.51034 26010 ft 447 kts 39°
2026-05-01 14:16 41.85229 -1.48391 26009 ft 448 kts 39°
2026-05-01 14:17 41.87602 -1.45788 26009 ft 450 kts 39°
2026-05-01 14:17 41.90031 -1.43123 26009 ft 451 kts 39°
2026-05-01 14:17 41.92442 -1.40480 26009 ft 452 kts 39°
2026-05-01 14:17 41.94886 -1.37799 26009 ft 453 kts 39°
2026-05-01 14:18 41.97344 -1.35098 26009 ft 454 kts 39°
2026-05-01 14:18 41.99796 -1.32397 26009 ft 455 kts 39°
2026-05-01 14:18 42.02251 -1.29690 26009 ft 456 kts 39°
2026-05-01 14:18 42.03877 -1.27895 26009 ft 456 kts 39°
2026-05-01 14:19 42.07133 -1.24299 26009 ft 457 kts 39°
2026-05-01 14:19 42.09594 -1.21580 26009 ft 458 kts 39°
2026-05-01 14:19 42.12058 -1.18846 26009 ft 458 kts 39°
2026-05-01 14:19 42.14527 -1.16107 26009 ft 459 kts 39°
2026-05-01 14:20 42.16970 -1.13402 26009 ft 459 kts 39°
2026-05-01 14:20 42.21914 -1.07928 26009 ft 460 kts 39°
2026-05-01 14:20 42.24392 -1.05177 26009 ft 461 kts 39°
2026-05-01 14:21 42.26862 -1.02427 26009 ft 461 kts 39°
2026-05-01 14:21 42.29346 -0.99659 26009 ft 462 kts 39°
2026-05-01 14:21 42.31826 -0.96891 26009 ft 462 kts 39°
2026-05-01 14:22 42.36767 -0.91363 26009 ft 463 kts 39°
2026-05-01 14:22 42.39251 -0.88582 26009 ft 463 kts 39°
2026-05-01 14:22 42.41726 -0.85776 26007 ft 464 kts 42°
2026-05-01 14:22 42.43959 -0.82629 26010 ft 464 kts 51°
2026-05-01 14:23 42.45914 -0.79209 26010 ft 464 kts 52°
2026-05-01 14:23 42.47883 -0.75734 26009 ft 464 kts 52°
2026-05-01 14:23 42.49867 -0.72248 26009 ft 465 kts 52°
2026-05-01 14:23 42.51843 -0.68780 26009 ft 465 kts 52°
2026-05-01 14:24 42.53811 -0.65329 26009 ft 465 kts 52°
2026-05-01 14:24 42.55797 -0.61838 26009 ft 466 kts 52°
2026-05-01 14:24 42.57774 -0.58347 26009 ft 466 kts 52°
2026-05-01 14:24 42.59726 -0.54893 26011 ft 466 kts 52°
2026-05-01 14:25 42.61723 -0.51351 26126 ft 464 kts 52°
2026-05-01 14:25 42.63650 -0.47930 26246 ft 461 kts 52°
2026-05-01 14:25 42.65597 -0.44467 26369 ft 459 kts 52°
2026-05-01 14:25 42.67529 -0.41032 26492 ft 457 kts 52°
2026-05-01 14:26 42.69457 -0.37605 26632 ft 454 kts 52°
2026-05-01 14:26 42.73258 -0.30841 27001 ft 447 kts 52°
2026-05-01 14:26 42.75140 -0.27486 27126 ft 445 kts 53°
2026-05-01 14:27 42.77013 -0.24137 27250 ft 444 kts 53°
2026-05-01 14:27 42.78886 -0.20777 27375 ft 443 kts 53°
2026-05-01 14:27 42.80755 -0.17449 27499 ft 442 kts 52°
2026-05-01 14:28 42.84613 -0.10970 27748 ft 439 kts 50°
2026-05-01 14:28 42.86548 -0.07820 27871 ft 438 kts 50°
2026-05-01 14:28 42.88503 -0.04633 27995 ft 437 kts 50°
2026-05-01 14:28 42.90448 -0.01441 28121 ft 436 kts 50°
2026-05-01 14:29 42.92361 0.01723 28244 ft 435 kts 51°
2026-05-01 14:29 42.94293 0.04942 28370 ft 435 kts 51°
2026-05-01 14:30 42.99992 0.14499 28744 ft 432 kts 51°
2026-05-01 14:30 43.01883 0.17679 28864 ft 431 kts 51°
2026-05-01 14:30 43.03749 0.20824 29067 ft 428 kts 51°
2026-05-01 14:31 43.07486 0.27113 29566 ft 420 kts 51°
2026-05-01 14:31 43.09319 0.30200 29813 ft 417 kts 51°
2026-05-01 14:31 43.11146 0.33276 29972 ft 416 kts 51°
2026-05-01 14:32 43.14788 0.39423 30009 ft 421 kts 51°
2026-05-01 14:32 43.18499 0.45698 30010 ft 426 kts 51°
2026-05-01 14:33 43.21635 0.51023 30010 ft 430 kts 51°
2026-05-01 14:33 43.25382 0.57403 30009 ft 434 kts 51°
2026-05-01 14:34 43.29198 0.63898 30010 ft 438 kts 51°
2026-05-01 14:34 43.33027 0.70440 30009 ft 441 kts 51°
2026-05-01 14:35 43.36892 0.77041 30009 ft 444 kts 51°
2026-05-01 14:35 43.40769 0.83686 30009 ft 446 kts 51°
2026-05-01 14:36 43.44627 0.90333 30009 ft 448 kts 51°
2026-05-01 14:36 43.48525 0.97052 30009 ft 450 kts 51°
2026-05-01 14:37 43.52444 1.03810 30009 ft 451 kts 51°
2026-05-01 14:37 43.56359 1.10578 30009 ft 452 kts 51°
2026-05-01 14:38 43.60283 1.17390 30009 ft 453 kts 52°
2026-05-01 14:38 43.64205 1.24231 30009 ft 454 kts 51°
2026-05-01 14:39 43.68143 1.31080 30009 ft 455 kts 52°
2026-05-01 14:39 43.71962 1.38010 30009 ft 456 kts 53°
2026-05-01 14:40 43.75699 1.45120 30009 ft 456 kts 54°
2026-05-01 14:40 43.79411 1.52198 30009 ft 457 kts 54°
2026-05-01 14:41 43.83182 1.59316 30009 ft 457 kts 53°
2026-05-01 14:41 43.86950 1.66388 30009 ft 458 kts 53°
2026-05-01 14:42 43.90736 1.73519 30009 ft 458 kts 54°
2026-05-01 14:42 43.94508 1.80672 30009 ft 459 kts 54°
2026-05-01 14:43 43.98207 1.87841 30009 ft 459 kts 55°
2026-05-01 14:43 44.01832 1.95170 30009 ft 459 kts 56°
2026-05-01 14:44 44.05434 2.02529 30009 ft 460 kts 56°
2026-05-01 14:44 44.10870 2.13509 30009 ft 460 kts 55°
2026-05-01 14:45 44.16304 2.24477 30009 ft 460 kts 55°
2026-05-01 14:46 44.19940 2.31855 30009 ft 460 kts 56°
2026-05-01 14:46 44.25351 2.42892 30009 ft 461 kts 56°
2026-05-01 14:47 44.28973 2.50292 30009 ft 461 kts 56°
2026-05-01 14:48 44.34369 2.61347 30009 ft 461 kts 56°
2026-05-01 14:48 44.39791 2.72491 30009 ft 461 kts 56°
2026-05-01 14:49 44.46965 2.87337 30009 ft 461 kts 56°
2026-05-01 14:50 44.54151 3.02264 30009 ft 461 kts 56°
2026-05-01 14:51 44.59511 3.13457 30009 ft 461 kts 56°
2026-05-01 14:52 44.64541 3.24960 30009 ft 461 kts 61°
2026-05-01 14:53 44.69121 3.36876 30009 ft 462 kts 61°
2026-05-01 14:53 44.72217 3.44738 30009 ft 462 kts 60°
2026-05-01 14:54 44.75383 3.52611 30009 ft 462 kts 60°
2026-05-01 14:54 44.78534 3.60464 30009 ft 462 kts 61°
2026-05-01 14:55 44.81664 3.68383 30009 ft 462 kts 61°
2026-05-01 14:55 44.84770 3.76272 30009 ft 462 kts 61°
2026-05-01 14:56 44.87890 3.84198 30009 ft 462 kts 61°
2026-05-01 14:56 44.91009 3.92141 30009 ft 462 kts 61°
2026-05-01 14:57 44.94101 4.00040 30009 ft 462 kts 61°
2026-05-01 14:57 44.98762 4.11972 30009 ft 462 kts 61°
2026-05-01 14:58 45.01848 4.19905 30009 ft 462 kts 61°
2026-05-01 14:58 45.04941 4.27903 30009 ft 462 kts 61°
2026-05-01 14:59 45.08018 4.35894 30009 ft 462 kts 62°
2026-05-01 14:59 45.11087 4.43852 30009 ft 462 kts 61°
2026-05-01 15:00 45.15693 4.55827 30009 ft 462 kts 62°
2026-05-01 15:01 45.18759 4.63845 30009 ft 462 kts 62°
2026-05-01 15:01 45.21831 4.71886 30009 ft 462 kts 62°
2026-05-01 15:02 45.24871 4.79873 30009 ft 462 kts 62°
2026-05-01 15:02 45.27923 4.87927 30009 ft 462 kts 62°
2026-05-01 15:03 45.30974 4.95995 30009 ft 462 kts 62°
2026-05-01 15:03 45.33999 5.04018 30009 ft 462 kts 62°
2026-05-01 15:04 45.37038 5.12100 30009 ft 462 kts 62°
2026-05-01 15:04 45.40042 5.20121 30009 ft 462 kts 62°
2026-05-01 15:05 45.43073 5.28235 30009 ft 462 kts 62°
2026-05-01 15:05 45.46069 5.36292 30009 ft 462 kts 62°
2026-05-01 15:06 45.49461 5.44077 30009 ft 462 kts 50°
2026-05-01 15:06 45.54046 5.50438 30009 ft 462 kts 41°
2026-05-01 15:07 45.58852 5.56548 30009 ft 462 kts 41°
2026-05-01 15:07 45.63648 5.62688 30009 ft 462 kts 42°
2026-05-01 15:08 45.68409 5.68809 30009 ft 462 kts 42°
2026-05-01 15:08 45.73200 5.74988 30009 ft 462 kts 42°
2026-05-01 15:09 45.77961 5.81114 30009 ft 462 kts 42°
2026-05-01 15:09 45.82759 5.87275 30009 ft 463 kts 42°
2026-05-01 15:10 45.87556 5.93462 30009 ft 463 kts 42°
2026-05-01 15:10 45.94726 6.02729 30009 ft 463 kts 42°
2026-05-01 15:11 46.01874 6.12010 30009 ft 463 kts 42°
2026-05-01 15:12 46.06658 6.18256 30009 ft 463 kts 42°
2026-05-01 15:12 46.10862 6.25184 30012 ft 463 kts 55°
2026-05-01 15:12 46.12706 6.28979 30008 ft 463 kts 55°
2026-05-01 15:14 46.21983 6.47983 30009 ft 463 kts 55°
2026-05-01 15:14 46.27515 6.59409 30009 ft 463 kts 55°
2026-05-01 15:15 46.34875 6.74691 30009 ft 464 kts 55°
2026-05-01 15:16 46.42253 6.90045 30009 ft 463 kts 55°
2026-05-01 15:18 46.51396 7.09242 30009 ft 463 kts 55°
2026-05-01 15:19 46.59626 7.23560 30009 ft 463 kts 36°
2026-05-01 15:19 46.65240 7.28020 30010 ft 463 kts 24°
2026-05-01 15:19 46.68166 7.29974 30009 ft 463 kts 24°
2026-05-01 15:20 46.75972 7.35233 30009 ft 463 kts 25°
2026-05-01 15:21 46.81806 7.39275 30005 ft 463 kts 29°
2026-05-01 15:21 46.86872 7.44965 30009 ft 463 kts 46°
2026-05-01 15:22 46.92963 7.55954 30009 ft 463 kts 51°
2026-05-01 15:22 46.96962 7.63320 30009 ft 463 kts 51°
2026-05-01 15:23 47.00976 7.70710 30009 ft 463 kts 51°
2026-05-01 15:23 47.04976 7.78115 30009 ft 463 kts 52°
2026-05-01 15:24 47.08962 7.85549 30009 ft 463 kts 52°
2026-05-01 15:24 47.12945 7.92995 30009 ft 463 kts 53°
2026-05-01 15:25 47.16464 8.00931 30008 ft 463 kts 58°
2026-05-01 15:25 47.19873 8.08920 30009 ft 463 kts 58°
2026-05-01 15:26 47.23308 8.16979 30009 ft 464 kts 58°
2026-05-01 15:26 47.26709 8.24993 30009 ft 464 kts 58°
2026-05-01 15:27 47.30012 8.33188 30006 ft 463 kts 65°
2026-05-01 15:28 47.33155 8.46602 30009 ft 463 kts 72°
2026-05-01 15:28 47.35158 8.55653 30009 ft 463 kts 72°
2026-05-01 15:29 47.38143 8.69183 30009 ft 463 kts 72°
2026-05-01 15:30 47.42088 8.87302 30009 ft 464 kts 72°
2026-05-01 15:31 47.47960 9.14563 30009 ft 464 kts 72°
2026-05-01 15:32 47.51837 9.32731 30009 ft 464 kts 73°
2026-05-01 15:34 47.57576 9.60067 30009 ft 464 kts 74°